Location: Days
(41.3591°N, 106.7339°W)
Time: 06:07:49
(UTC+00:00)

PicSat - Visible Passes

Search period start: 26 June 2022 00:00
Search period end: 06 July 2022 00:00
Orbit: 453 x 459 km, 97.4° (Epoch: 25 June)

Date Brightness Start Highest point End Pass type
(mag) Time Alt. Az. Time Alt. Az. Time Alt. Az.
26 Jun ? 05:13:12 51° E 05:13:16 51° ENE 05:16:38 10° N visible
27 Jun ? 04:39:45 19° E 04:40:20 19° ENE 04:42:52 10° NNE visible
27 Jun ? 06:13:32 22° W 06:13:32 22° W 06:15:50 10° NW visible
28 Jun ? 05:40:03 62° WNW 05:40:03 62° WNW 05:43:15 10° NNW visible
29 Jun ? 05:06:33 41° E 05:06:42 41° ENE 05:09:57 10° N visible
29 Jun ? 06:40:19 10° W 06:40:19 10° W 06:40:25 10° W visible
30 Jun ? 04:33:01 15° E 04:33:41 16° ENE 04:35:54 10° NNE visible
30 Jun ? 06:06:47 26° W 06:06:47 26° W 06:09:19 10° NW visible
01 Jul ? 05:33:12 76° NW 05:33:12 76° NW 05:36:28 10° NNW visible
02 Jul ? 04:59:37 33° E 04:59:49 33° ENE 05:02:57 10° N visible
02 Jul ? 06:33:22 13° W 06:33:22 13° W 06:34:27 10° WNW visible
03 Jul ? 04:25:59 13° E 04:26:45 13° ENE 04:28:30 10° NE visible
03 Jul ? 05:59:44 32° W 05:59:44 32° W 06:02:27 10° NNW visible
04 Jul ? 05:26:05 75° NE 05:26:05 75° NE 05:29:21 10° N visible
05 Jul ? 04:52:23 26° E 04:52:39 27° ENE 04:55:36 10° NNE visible
05 Jul ? 06:26:08 15° W 06:26:08 15° W 06:27:44 10° NW visible
